Time,TemperatureF,DewpointF,PressureIn,WindDirection,WindDirectionDegrees,WindSpeedMPH,WindSpeedGustMPH,Humidity,HourlyPrecipIn,Conditions,Clouds,dailyrainin,SoftwareType,DateUTC
2013-02-06 00:00:00,36.9,23.5,29.83,SW,223,0.0,0.0,58,0.00,,---,0.04,VWS V14.01,2013-02-06 05:00:00,
2013-02-06 00:01:00,37.0,23.6,29.83,SW,223,0.0,0.0,58,0.00,,---,0.00,VWS V14.01,2013-02-06 05:01:00,
2013-02-06 00:06:00,37.0,23.2,29.83,South,180,3.1,3.6,57,0.00,,---,0.00,VWS V14.01,2013-02-06 05:06:00,
2013-02-06 00:11:00,37.0,22.8,29.83,SSW,193,0.0,0.0,56,0.00,,---,0.00,VWS V14.01,2013-02-06 05:11:00,
2013-02-06 00:16:00,37.0,22.8,29.83,SSW,193,0.0,0.0,56,0.00,,---,0.00,VWS V14.01,2013-02-06 05:16:00,
2013-02-06 00:21:00,36.7,22.5,29.83,ESE,118,0.0,0.0,56,0.00,,---,0.00,VWS V14.01,2013-02-06 05:21:00,
2013-02-06 00:26:00,36.5,22.3,29.83,SSE,165,0.0,0.0,56,0.00,,---,0.00,VWS V14.01,2013-02-06 05:26:00,
2013-02-06 00:31:00,36.3,22.1,29.83,ESE,122,0.0,0.0,56,0.00,,---,0.00,VWS V14.01,2013-02-06 05:31:00,
2013-02-06 00:36:00,35.8,22.0,29.83,ENE,60,0.0,0.0,57,0.00,,---,0.00,VWS V14.01,2013-02-06 05:36:00,
2013-02-06 00:41:00,35.4,21.7,29.83,NE,48,0.0,0.0,57,0.00,,---,0.00,VWS V14.01,2013-02-06 05:41:00,
2013-02-06 00:46:00,35.2,22.0,29.83,NE,48,0.0,0.0,58,0.00,,---,0.00,VWS V14.01,2013-02-06 05:46:00,
2013-02-06 00:51:00,35.1,22.2,29.83,NE,48,0.0,0.0,59,0.00,,---,0.00,VWS V14.01,2013-02-06 05:51:00,
2013-02-06 00:56:00,35.1,22.6,29.83,NE,48,3.1,3.1,60,0.00,,---,0.00,VWS V14.01,2013-02-06 05:56:00,
2013-02-06 01:01:00,35.1,23.0,29.83,NE,48,0.0,0.0,61,0.00,,---,0.00,VWS V14.01,2013-02-06 06:01:00,
2013-02-06 01:06:00,35.2,23.5,29.83,East,81,0.0,0.0,62,0.00,,---,0.00,VWS V14.01,2013-02-06 06:06:00,
2013-02-06 01:11:00,35.4,23.7,29.83,East,81,0.0,0.0,62,0.00,,---,0.00,VWS V14.01,2013-02-06 06:11:00,
2013-02-06 01:16:00,35.6,23.9,29.83,East,81,0.0,0.0,62,0.00,,---,0.00,VWS V14.01,2013-02-06 06:16:00,
2013-02-06 01:21:00,35.6,23.5,29.83,East,81,0.0,0.0,61,0.00,,---,0.00,VWS V14.01,2013-02-06 06:21:00,
2013-02-06 01:26:00,35.8,23.7,29.83,East,81,0.0,0.0,61,0.00,,---,0.00,VWS V14.01,2013-02-06 06:26:00,
2013-02-06 01:31:00,35.6,23.1,29.83,East,81,0.0,0.0,60,0.00,,---,0.00,VWS V14.01,2013-02-06 06:31:00,
2013-02-06 01:36:00,35.6,23.1,29.83,ENE,76,0.0,0.0,60,0.00,,---,0.00,VWS V14.01,2013-02-06 06:36:00,
2013-02-06 01:41:00,35.6,22.7,29.86,NE,45,0.0,0.0,59,0.00,,---,0.00,VWS V14.01,2013-02-06 06:41:00,
2013-02-06 01:46:00,35.8,22.5,29.86,SW,227,8.1,11.4,58,0.00,,---,0.00,VWS V14.01,2013-02-06 06:46:00,
2013-02-06 01:51:00,36.7,22.9,29.86,SSW,206,0.0,0.0,57,0.00,,---,0.00,VWS V14.01,2013-02-06 06:51:00,
2013-02-06 01:56:00,36.7,22.0,29.86,SW,235,0.0,0.0,55,0.00,,---,0.00,VWS V14.01,2013-02-06 06:56:00,
2013-02-06 02:01:00,36.7,22.0,29.86,SSW,204,5.4,5.8,55,0.00,,---,0.00,VWS V14.01,2013-02-06 07:01:00,
2013-02-06 02:06:00,37.2,21.7,29.86,SW,222,0.0,2.7,53,0.00,,---,0.00,VWS V14.01,2013-02-06 07:06:00,
2013-02-06 02:11:00,37.6,21.1,29.86,SW,236,2.7,3.6,51,0.00,,---,0.00,VWS V14.01,2013-02-06 07:11:00,
2013-02-06 02:16:00,37.8,21.3,29.86,ESE,108,0.0,0.0,51,0.00,,---,0.00,VWS V14.01,2013-02-06 07:16:00,
2013-02-06 02:21:00,37.6,21.1,29.86,NE,36,0.0,0.0,51,0.00,,---,0.00,VWS V14.01,2013-02-06 07:21:00,
2013-02-06 02:26:00,37.4,20.5,29.86,SW,234,3.1,3.1,50,0.00,,---,0.00,VWS V14.01,2013-02-06 07:26:00,
2013-02-06 02:31:00,37.6,20.6,29.86,NNE,25,0.0,0.0,50,0.00,,---,0.00,VWS V14.01,2013-02-06 07:31:00,
2013-02-06 02:36:00,37.4,20.9,29.86,NNE,25,0.0,0.0,51,0.00,,---,0.00,VWS V14.01,2013-02-06 07:36:00,
2013-02-06 02:41:00,37.0,20.6,29.86,East,95,0.0,3.1,51,0.00,,---,0.00,VWS V14.01,2013-02-06 07:41:00,
2013-02-06 02:47:00,36.9,20.9,29.86,ESE,123,0.0,0.0,52,0.00,,---,0.00,VWS V14.01,2013-02-06 07:47:00,
2013-02-06 02:52:00,36.9,20.9,29.86,West,267,0.0,0.0,52,0.00,,---,0.00,VWS V14.01,2013-02-06 07:52:00,
2013-02-06 02:57:00,37.2,20.3,29.86,West,266,5.8,10.5,50,0.00,,---,0.00,VWS V14.01,2013-02-06 07:57:00,
2013-02-06 03:02:00,37.9,21.0,29.86,ESE,108,0.0,0.0,50,0.00,,---,0.00,VWS V14.01,2013-02-06 08:02:00,
2013-02-06 03:07:00,37.9,20.5,29.86,WSW,240,5.8,5.8,49,0.00,,---,0.00,VWS V14.01,2013-02-06 08:07:00,
2013-02-06 03:12:00,37.9,20.0,29.89,South,187,3.1,3.1,48,0.00,,---,0.00,VWS V14.01,2013-02-06 08:12:00,
2013-02-06 03:17:00,38.1,19.7,29.89,WSW,237,3.1,4.0,47,0.00,,---,0.00,VWS V14.01,2013-02-06 08:17:00,
2013-02-06 03:22:00,38.1,19.7,29.89,WSW,243,8.1,10.5,47,0.00,,---,0.00,VWS V14.01,2013-02-06 08:22:00,
2013-02-06 03:27:00,37.9,19.5,29.89,SSW,212,6.3,8.3,47,0.00,,---,0.00,VWS V14.01,2013-02-06 08:27:00,
2013-02-06 03:32:00,37.8,19.4,29.89,WSW,240,4.0,4.0,47,0.00,,---,0.00,VWS V14.01,2013-02-06 08:32:00,
2013-02-06 03:37:00,37.6,19.2,29.89,WSW,237,0.0,6.3,47,0.00,,---,0.00,VWS V14.01,2013-02-06 08:37:00,
2013-02-06 03:42:00,37.4,19.0,29.89,SW,218,3.1,4.0,47,0.00,,---,0.00,VWS V14.01,2013-02-06 08:42:00,
2013-02-06 03:47:00,37.4,19.0,29.89,WSW,239,2.7,4.0,47,0.00,,---,0.00,VWS V14.01,2013-02-06 08:47:00,
2013-02-06 03:52:00,37.2,19.4,29.89,WSW,245,13.2,13.2,48,0.00,,---,0.00,VWS V14.01,2013-02-06 08:52:00,
2013-02-06 03:57:00,37.0,19.2,29.89,West,278,3.6,6.3,48,0.00,,---,0.00,VWS V14.01,2013-02-06 08:57:00,
2013-02-06 04:02:00,37.0,19.2,29.89,SSE,163,4.0,6.3,48,0.00,,---,0.00,VWS V14.01,2013-02-06 09:02:00,
2013-02-06 04:07:00,37.0,18.7,29.89,SW,214,6.3,6.3,47,0.00,,---,0.00,VWS V14.01,2013-02-06 09:07:00,
2013-02-06 04:12:00,36.9,19.0,29.89,SE,125,2.2,2.2,48,0.00,,---,0.00,VWS V14.01,2013-02-06 09:12:00,
2013-02-06 04:17:00,36.7,18.9,29.89,East,92,0.0,0.0,48,0.00,,---,0.00,VWS V14.01,2013-02-06 09:17:00,
2013-02-06 04:22:00,36.7,17.9,29.89,SSW,209,6.3,6.3,46,0.00,,---,0.00,VWS V14.01,2013-02-06 09:22:00,
2013-02-06 04:27:00,36.9,18.0,29.89,SW,222,3.6,3.6,46,0.00,,---,0.00,VWS V14.01,2013-02-06 09:27:00,
2013-02-06 04:32:00,36.7,18.4,29.89,South,182,4.0,4.0,47,0.00,,---,0.00,VWS V14.01,2013-02-06 09:32:00,
2013-02-06 04:37:00,36.7,18.4,29.89,SSE,167,2.2,2.7,47,0.00,,---,0.00,VWS V14.01,2013-02-06 09:37:00,
2013-02-06 04:42:00,36.5,18.2,29.92,WSW,254,3.6,3.6,47,0.00,,---,0.00,VWS V14.01,2013-02-06 09:42:00,
2013-02-06 04:47:00,36.3,18.5,29.92,SE,130,0.0,0.0,48,0.00,,---,0.00,VWS V14.01,2013-02-06 09:47:00,
2013-02-06 04:52:00,36.1,17.9,29.92,SSE,163,5.4,5.8,47,0.00,,---,0.00,VWS V14.01,2013-02-06 09:52:00,
2013-02-06 04:57:00,36.1,17.9,29.92,SW,217,5.8,5.8,47,0.00,,---,0.00,VWS V14.01,2013-02-06 09:57:00,
2013-02-06 05:02:00,35.8,17.5,29.92,West,261,2.2,3.1,47,0.00,,---,0.00,VWS V14.01,2013-02-06 10:02:00,
2013-02-06 05:07:00,35.6,17.4,29.92,SSE,167,6.3,6.3,47,0.00,,---,0.00,VWS V14.01,2013-02-06 10:07:00,
2013-02-06 05:12:00,35.4,17.2,29.95,NE,45,2.7,4.0,47,0.00,,---,0.00,VWS V14.01,2013-02-06 10:12:00,
2013-02-06 05:17:00,35.1,17.4,29.95,SE,125,3.1,4.0,48,0.00,,---,0.00,VWS V14.01,2013-02-06 10:17:00,
2013-02-06 05:22:00,34.9,17.2,29.95,East,84,3.1,4.0,48,0.00,,---,0.00,VWS V14.01,2013-02-06 10:22:00,
2013-02-06 05:27:00,34.7,17.0,29.95,ESE,109,0.0,0.0,48,0.00,,---,0.00,VWS V14.01,2013-02-06 10:27:00,
2013-02-06 05:32:00,34.5,17.3,29.95,SW,225,5.8,5.8,49,0.00,,---,0.00,VWS V14.01,2013-02-06 10:32:00,
2013-02-06 05:37:00,34.3,17.2,29.95,SSW,204,7.6,7.6,49,0.00,,---,0.00,VWS V14.01,2013-02-06 10:37:00,
2013-02-06 05:43:00,34.3,16.7,29.95,SSE,157,3.1,4.0,48,0.00,,---,0.00,VWS V14.01,2013-02-06 10:43:00,
2013-02-06 05:48:00,34.3,16.2,29.95,SW,215,8.7,10.5,47,0.00,,---,0.00,VWS V14.01,2013-02-06 10:48:00,
2013-02-06 05:53:00,34.3,16.2,29.95,South,181,0.0,2.7,47,0.00,,---,0.00,VWS V14.01,2013-02-06 10:53:00,
2013-02-06 05:58:00,34.2,16.5,29.95,SSW,197,0.0,0.0,48,0.00,,---,0.00,VWS V14.01,2013-02-06 10:58:00,
2013-02-06 06:03:00,34.0,16.4,29.95,SSW,211,3.6,6.3,48,0.00,,---,0.00,VWS V14.01,2013-02-06 11:03:00,
2013-02-06 06:08:00,34.0,16.4,29.95,SW,235,3.6,3.6,48,0.00,,---,0.00,VWS V14.01,2013-02-06 11:08:00,
2013-02-06 06:13:00,34.0,16.8,29.95,SSE,155,3.1,3.6,49,0.00,,---,0.00,VWS V14.01,2013-02-06 11:13:00,
2013-02-06 06:18:00,33.8,16.7,29.95,SW,218,0.0,0.0,49,0.00,,---,0.00,VWS V14.01,2013-02-06 11:18:00,
2013-02-06 06:23:00,33.8,16.7,29.95,South,183,3.6,4.0,49,0.00,,---,0.00,VWS V14.01,2013-02-06 11:23:00,
2013-02-06 06:28:00,33.8,16.7,29.95,SSW,200,4.0,4.0,49,0.00,,---,0.00,VWS V14.01,2013-02-06 11:28:00,
2013-02-06 06:33:00,33.8,16.7,29.95,SW,224,4.0,4.0,49,0.00,,---,0.00,VWS V14.01,2013-02-06 11:33:00,
2013-02-06 06:38:00,33.6,17.0,29.95,SSW,206,6.3,6.3,50,0.00,,---,0.00,VWS V14.01,2013-02-06 11:38:00,
2013-02-06 06:43:00,33.6,16.5,29.98,WSW,244,0.0,2.2,49,0.00,,---,0.00,VWS V14.01,2013-02-06 11:43:00,
2013-02-06 06:49:00,33.6,16.5,29.98,SSW,208,5.4,6.3,49,0.00,,---,0.00,VWS V14.01,2013-02-06 11:49:00,
2013-02-06 06:54:00,33.6,16.5,29.98,SSW,196,0.0,2.7,49,0.00,,---,0.00,VWS V14.01,2013-02-06 11:54:00,
2013-02-06 06:59:00,33.4,16.8,29.98,SSW,210,0.0,0.0,50,0.00,,---,0.00,VWS V14.01,2013-02-06 11:59:00,
2013-02-06 07:04:00,33.4,16.8,29.98,SW,235,3.6,4.9,50,0.00,,---,0.00,VWS V14.01,2013-02-06 12:04:00,
2013-02-06 07:09:00,33.3,16.6,29.98,SW,219,5.4,8.3,50,0.00,,---,0.00,VWS V14.01,2013-02-06 12:09:00,
2013-02-06 07:14:00,33.3,16.6,29.98,SW,231,6.3,7.6,50,0.00,,---,0.00,VWS V14.01,2013-02-06 12:14:00,
2013-02-06 07:19:00,33.4,16.8,29.98,WSW,254,5.4,5.4,50,0.00,,---,0.00,VWS V14.01,2013-02-06 12:19:00,
2013-02-06 07:24:00,33.3,16.6,29.98,WSW,237,2.7,3.6,50,0.00,,---,0.00,VWS V14.01,2013-02-06 12:24:00,
2013-02-06 07:29:00,33.3,16.6,29.98,WSW,248,5.4,5.4,50,0.00,,---,0.00,VWS V14.01,2013-02-06 12:29:00,
2013-02-06 07:34:00,33.3,16.6,29.98,South,170,3.1,3.1,50,0.00,,---,0.00,VWS V14.01,2013-02-06 12:34:00,
2013-02-06 07:39:00,33.3,16.6,29.98,SSW,209,4.0,4.0,50,0.00,,---,0.00,VWS V14.01,2013-02-06 12:39:00,
2013-02-06 07:44:00,33.3,16.6,29.98,WSW,237,2.7,5.4,50,0.00,,---,0.00,VWS V14.01,2013-02-06 12:44:00,
2013-02-06 07:49:00,33.3,16.6,29.98,South,179,6.3,6.3,50,0.00,,---,0.00,VWS V14.01,2013-02-06 12:49:00,
2013-02-06 07:54:00,33.3,16.6,29.98,SW,220,3.1,3.6,50,0.00,,---,0.00,VWS V14.01,2013-02-06 12:54:00,
2013-02-06 07:59:00,33.1,16.5,30.01,SW,219,5.4,5.4,50,0.00,,---,0.00,VWS V14.01,2013-02-06 12:59:00,
2013-02-06 08:04:00,33.3,16.6,30.01,SSW,207,4.0,4.0,50,0.00,,---,0.00,VWS V14.01,2013-02-06 13:04:00,
2013-02-06 08:09:00,33.1,16.5,30.01,SSE,156,4.0,4.0,50,0.00,,---,0.00,VWS V14.01,2013-02-06 13:09:00,
2013-02-06 08:14:00,33.1,16.5,30.01,SE,145,0.0,3.6,50,0.00,,---,0.00,VWS V14.01,2013-02-06 13:14:00,
2013-02-06 08:19:00,33.1,16.5,30.01,South,174,4.0,5.8,50,0.00,,---,0.00,VWS V14.01,2013-02-06 13:19:00,
2013-02-06 08:24:00,33.3,16.6,30.01,South,187,5.8,5.8,50,0.00,,---,0.00,VWS V14.01,2013-02-06 13:24:00,
2013-02-06 08:30:00,33.3,16.6,30.01,South,178,3.1,4.0,50,0.00,,---,0.00,VWS V14.01,2013-02-06 13:30:00,
2013-02-06 08:35:00,33.3,16.2,30.01,SW,216,4.9,5.4,49,0.00,,---,0.00,VWS V14.01,2013-02-06 13:35:00,
2013-02-06 08:40:00,33.3,16.6,30.01,SW,236,2.2,4.0,50,0.00,,---,0.00,VWS V14.01,2013-02-06 13:40:00,
2013-02-06 08:45:00,33.3,16.6,30.01,SW,233,4.9,4.9,50,0.00,,---,0.00,VWS V14.01,2013-02-06 13:45:00,
2013-02-06 08:50:00,33.3,16.2,30.01,SW,222,0.0,0.0,49,0.00,,---,0.00,VWS V14.01,2013-02-06 13:50:00,
2013-02-06 08:55:00,33.4,16.4,30.01,SSW,208,0.0,0.0,49,0.00,,---,0.00,VWS V14.01,2013-02-06 13:55:00,
2013-02-06 09:00:00,33.4,16.4,30.03,SSW,202,4.0,4.0,49,0.00,,---,0.00,VWS V14.01,2013-02-06 14:00:00,
2013-02-06 09:05:00,33.4,16.4,30.03,WNW,295,0.0,0.0,49,0.00,,---,0.00,VWS V14.01,2013-02-06 14:05:00,
2013-02-06 09:10:00,33.6,16.0,30.03,West,270,3.6,4.0,48,0.00,,---,0.00,VWS V14.01,2013-02-06 14:10:00,
2013-02-06 09:15:00,33.6,15.6,30.03,NW,326,0.0,2.7,47,0.00,,---,0.00,VWS V14.01,2013-02-06 14:15:00,
2013-02-06 09:20:00,33.6,15.6,30.03,SSW,211,4.0,4.0,47,0.00,,---,0.00,VWS V14.01,2013-02-06 14:20:00,
2013-02-06 09:25:00,33.8,15.7,30.03,WSW,256,4.9,4.9,47,0.00,,---,0.00,VWS V14.01,2013-02-06 14:25:00,
2013-02-06 09:30:00,34.0,15.4,30.03,SW,214,7.2,7.6,46,0.00,,---,0.00,VWS V14.01,2013-02-06 14:30:00,
2013-02-06 09:35:00,34.0,14.9,30.03,SSW,209,5.4,5.4,45,0.00,,---,0.00,VWS V14.01,2013-02-06 14:35:00,
2013-02-06 09:40:00,34.2,15.6,30.03,SSW,207,4.9,4.9,46,0.00,,---,0.00,VWS V14.01,2013-02-06 14:40:00,
2013-02-06 09:45:00,34.0,14.4,30.03,SSW,204,5.4,6.3,44,0.00,,---,0.00,VWS V14.01,2013-02-06 14:45:00,
2013-02-06 09:50:00,34.0,14.4,30.03,SW,220,3.6,6.3,44,0.00,,---,0.00,VWS V14.01,2013-02-06 14:50:00,
2013-02-06 09:55:00,34.2,14.5,30.03,SW,220,4.0,4.9,44,0.00,,---,0.00,VWS V14.01,2013-02-06 14:55:00,
2013-02-06 10:00:00,34.3,14.7,30.03,SSW,194,3.6,4.0,44,0.00,,---,0.00,VWS V14.01,2013-02-06 15:00:00,
2013-02-06 10:05:00,34.5,14.9,30.03,SSW,204,4.5,4.5,44,0.00,,---,0.00,VWS V14.01,2013-02-06 15:05:00,
2013-02-06 10:10:00,34.7,14.5,30.03,SSW,194,2.2,2.7,43,0.00,,---,0.00,VWS V14.01,2013-02-06 15:10:00,
2013-02-06 10:15:00,34.9,14.7,30.03,SW,223,8.3,8.3,43,0.00,,---,0.00,VWS V14.01,2013-02-06 15:15:00,
2013-02-06 10:20:00,34.7,14.5,30.03,South,182,3.6,3.6,43,0.00,,---,0.00,VWS V14.01,2013-02-06 15:20:00,
2013-02-06 10:25:00,34.7,14.5,30.03,SW,234,4.9,6.7,43,0.00,,---,0.00,VWS V14.01,2013-02-06 15:25:00,
2013-02-06 10:31:00,34.7,14.0,30.03,SW,225,3.6,4.0,42,0.00,,---,0.00,VWS V14.01,2013-02-06 15:31:00,
2013-02-06 10:36:00,34.9,14.1,30.03,SW,223,5.4,5.8,42,0.00,,---,0.00,VWS V14.01,2013-02-06 15:36:00,
2013-02-06 10:41:00,34.9,14.1,30.03,SW,222,5.8,8.3,42,0.00,,---,0.00,VWS V14.01,2013-02-06 15:41:00,
2013-02-06 10:46:00,35.1,14.3,30.03,SW,225,4.9,7.6,42,0.00,,---,0.00,VWS V14.01,2013-02-06 15:46:00,
2013-02-06 10:51:00,35.1,14.3,30.03,West,268,5.8,5.8,42,0.00,,---,0.00,VWS V14.01,2013-02-06 15:51:00,
2013-02-06 10:56:00,35.4,14.6,30.06,SW,232,5.8,5.8,42,0.00,,---,0.00,VWS V14.01,2013-02-06 15:56:00,
2013-02-06 11:01:00,35.4,14.1,30.06,SW,219,5.4,5.8,41,0.00,,---,0.00,VWS V14.01,2013-02-06 16:01:00,
2013-02-06 11:06:00,35.4,14.1,30.06,SSW,207,3.1,3.6,41,0.00,,---,0.00,VWS V14.01,2013-02-06 16:06:00,
2013-02-06 11:11:00,35.4,14.1,30.06,SW,225,3.1,3.6,41,0.00,,---,0.00,VWS V14.01,2013-02-06 16:11:00,
2013-02-06 11:16:00,35.6,13.7,30.06,SSW,207,5.4,7.6,40,0.00,,---,0.00,VWS V14.01,2013-02-06 16:16:00,
2013-02-06 11:21:00,35.8,13.8,30.06,SW,221,3.1,3.6,40,0.00,,---,0.00,VWS V14.01,2013-02-06 16:21:00,
2013-02-06 11:26:00,36.3,14.3,30.06,SSW,213,8.1,8.1,40,0.00,,---,0.00,VWS V14.01,2013-02-06 16:26:00,
2013-02-06 11:31:00,36.7,14.6,30.06,SW,223,6.3,7.2,40,0.00,,---,0.00,VWS V14.01,2013-02-06 16:31:00,
2013-02-06 11:36:00,36.7,14.6,30.06,SW,222,4.0,6.3,40,0.00,,---,0.00,VWS V14.01,2013-02-06 16:36:00,
2013-02-06 11:41:00,36.7,14.6,30.06,WSW,257,5.8,5.8,40,0.00,,---,0.00,VWS V14.01,2013-02-06 16:41:00,
2013-02-06 11:46:00,36.7,14.6,30.06,SSW,209,2.7,4.0,40,0.00,,---,0.00,VWS V14.01,2013-02-06 16:46:00,
2013-02-06 11:51:00,36.9,14.8,30.06,SSW,213,3.6,4.9,40,0.00,,---,0.00,VWS V14.01,2013-02-06 16:51:00,
2013-02-06 11:56:00,36.7,14.6,30.06,WSW,249,7.6,7.6,40,0.00,,---,0.00,VWS V14.01,2013-02-06 16:56:00,
2013-02-06 12:01:00,36.9,14.8,30.06,SW,230,3.1,5.8,40,0.00,,---,0.00,VWS V14.01,2013-02-06 17:01:00,
2013-02-06 12:06:00,36.9,14.2,30.06,South,180,2.7,4.0,39,0.00,,---,0.00,VWS V14.01,2013-02-06 17:06:00,
2013-02-06 12:12:00,36.9,14.8,30.06,SW,225,5.4,5.4,40,0.00,,---,0.00,VWS V14.01,2013-02-06 17:12:00,
2013-02-06 12:17:00,36.9,14.2,30.06,SW,221,3.6,6.3,39,0.00,,---,0.00,VWS V14.01,2013-02-06 17:17:00,
2013-02-06 12:22:00,36.9,14.2,30.06,SSW,195,8.1,8.1,39,0.00,,---,0.00,VWS V14.01,2013-02-06 17:22:00,
2013-02-06 12:27:00,36.9,14.8,30.06,South,170,4.9,5.8,40,0.00,,---,0.00,VWS V14.01,2013-02-06 17:27:00,
2013-02-06 12:32:00,36.9,14.8,30.06,WSW,248,2.7,2.7,40,0.00,,---,0.00,VWS V14.01,2013-02-06 17:32:00,
2013-02-06 12:37:00,37.0,14.4,30.06,SSW,196,2.7,5.4,39,0.00,,---,0.00,VWS V14.01,2013-02-06 17:37:00,
2013-02-06 12:42:00,37.2,14.6,30.06,SW,224,5.4,8.3,39,0.00,,---,0.00,VWS V14.01,2013-02-06 17:42:00,
2013-02-06 12:47:00,37.6,14.3,30.06,SW,235,3.1,5.8,38,0.00,,---,0.00,VWS V14.01,2013-02-06 17:47:00,
2013-02-06 12:52:00,38.7,14.6,30.06,WSW,244,8.3,8.3,37,0.00,,---,0.00,VWS V14.01,2013-02-06 17:52:00,
2013-02-06 12:57:00,39.2,14.5,30.06,SW,236,5.4,8.3,36,0.00,,---,0.00,VWS V14.01,2013-02-06 17:57:00,
2013-02-06 13:02:00,39.9,14.5,30.06,West,260,5.4,6.3,35,0.00,,---,0.00,VWS V14.01,2013-02-06 18:02:00,
2013-02-06 13:07:00,40.1,14.7,30.06,South,175,3.1,4.0,35,0.00,,---,0.00,VWS V14.01,2013-02-06 18:07:00,
2013-02-06 13:12:00,40.3,13.5,30.06,SW,218,7.6,8.7,33,0.00,,---,0.00,VWS V14.01,2013-02-06 18:12:00,
2013-02-06 13:17:00,39.9,13.2,30.06,WSW,249,5.8,5.8,33,0.00,,---,0.00,VWS V14.01,2013-02-06 18:17:00,
2013-02-06 13:22:00,40.1,13.3,30.06,SW,214,4.0,8.3,33,0.00,,---,0.00,VWS V14.01,2013-02-06 18:22:00,
2013-02-06 13:27:00,40.3,13.5,30.06,WSW,237,4.9,6.3,33,0.00,,---,0.00,VWS V14.01,2013-02-06 18:27:00,
2013-02-06 13:32:00,40.8,14.6,30.06,SSW,213,3.1,3.6,34,0.00,,---,0.00,VWS V14.01,2013-02-06 18:32:00,
2013-02-06 13:37:00,41.5,13.9,30.06,WSW,248,4.0,8.7,32,0.00,,---,0.00,VWS V14.01,2013-02-06 18:37:00,
2013-02-06 13:42:00,41.2,12.9,30.06,South,191,2.2,4.9,31,0.00,,---,0.00,VWS V14.01,2013-02-06 18:42:00,
2013-02-06 13:47:00,41.2,12.9,30.06,SSW,212,8.7,8.7,31,0.00,,---,0.00,VWS V14.01,2013-02-06 18:47:00,
2013-02-06 13:52:00,41.2,12.9,30.06,SW,217,0.0,0.0,31,0.00,,---,0.00,VWS V14.01,2013-02-06 18:52:00,
2013-02-06 13:57:00,41.9,13.5,30.06,WSW,244,6.3,6.3,31,0.00,,---,0.00,VWS V14.01,2013-02-06 18:57:00,
2013-02-06 14:02:00,42.1,12.9,30.06,South,187,5.4,6.3,30,0.00,,---,0.00,VWS V14.01,2013-02-06 19:02:00,
2013-02-06 14:07:00,41.9,13.5,30.06,SW,236,4.9,4.9,31,0.00,,---,0.00,VWS V14.01,2013-02-06 19:07:00,
2013-02-06 14:12:00,42.3,13.1,30.06,SSW,197,0.0,4.9,30,0.00,,---,0.00,VWS V14.01,2013-02-06 19:12:00,
2013-02-06 14:17:00,42.4,14.0,30.06,WSW,254,4.0,5.4,31,0.00,,---,0.00,VWS V14.01,2013-02-06 19:17:00,
2013-02-06 14:22:00,43.2,13.8,30.06,SSW,200,4.0,5.8,30,0.00,,---,0.00,VWS V14.01,2013-02-06 19:22:00,
2013-02-06 14:28:00,43.5,14.2,30.06,WSW,246,6.7,10.1,30,0.00,,---,0.00,VWS V14.01,2013-02-06 19:28:00,
2013-02-06 14:33:00,43.3,14.0,30.06,West,269,3.1,4.0,30,0.00,,---,0.00,VWS V14.01,2013-02-06 19:33:00,
2013-02-06 14:38:00,43.5,14.2,30.06,South,182,4.9,6.3,30,0.00,,---,0.00,VWS V14.01,2013-02-06 19:38:00,
2013-02-06 14:43:00,44.1,14.6,30.06,West,279,3.6,3.6,30,0.00,,---,0.00,VWS V14.01,2013-02-06 19:43:00,
2013-02-06 14:48:00,44.4,14.2,30.06,WSW,237,5.4,7.6,29,0.00,,---,0.00,VWS V14.01,2013-02-06 19:48:00,
2013-02-06 14:53:00,44.2,14.8,30.06,SW,218,3.1,3.6,30,0.00,,---,0.00,VWS V14.01,2013-02-06 19:53:00,
2013-02-06 14:58:00,44.2,14.0,30.06,SW,216,8.3,8.3,29,0.00,,---,0.00,VWS V14.01,2013-02-06 19:58:00,
2013-02-06 15:03:00,43.7,13.5,30.06,WSW,242,5.8,8.7,29,0.00,,---,0.00,VWS V14.01,2013-02-06 20:03:00,
2013-02-06 15:08:00,43.3,13.2,30.06,SW,223,5.4,5.8,29,0.00,,---,0.00,VWS V14.01,2013-02-06 20:08:00,
2013-02-06 15:13:00,43.7,14.3,30.06,NW,326,0.0,3.1,30,0.00,,---,0.00,VWS V14.01,2013-02-06 20:13:00,
2013-02-06 15:18:00,44.6,14.3,30.06,SSW,201,4.9,5.8,29,0.00,,---,0.00,VWS V14.01,2013-02-06 20:18:00,
2013-02-06 15:23:00,44.8,14.5,30.06,SSW,208,2.7,2.7,29,0.00,,---,0.00,VWS V14.01,2013-02-06 20:23:00,
2013-02-06 15:28:00,45.1,14.0,30.06,SSW,210,3.1,5.4,28,0.00,,---,0.00,VWS V14.01,2013-02-06 20:28:00,
2013-02-06 15:33:00,44.6,13.5,30.06,South,189,8.1,8.1,28,0.00,,---,0.00,VWS V14.01,2013-02-06 20:33:00,
2013-02-06 15:38:00,44.6,13.5,30.06,SSW,204,4.0,5.8,28,0.00,,---,0.00,VWS V14.01,2013-02-06 20:38:00,
2013-02-06 15:43:00,45.0,13.8,30.06,SSW,200,3.1,3.6,28,0.00,,---,0.00,VWS V14.01,2013-02-06 20:43:00,
2013-02-06 15:48:00,45.1,14.0,30.06,South,183,2.7,4.0,28,0.00,,---,0.00,VWS V14.01,2013-02-06 20:48:00,
2013-02-06 15:53:00,45.5,14.3,30.06,SW,220,4.9,4.9,28,0.00,,---,0.00,VWS V14.01,2013-02-06 20:53:00,
2013-02-06 15:58:00,45.3,14.1,30.06,SW,224,3.6,4.9,28,0.00,,---,0.00,VWS V14.01,2013-02-06 20:58:00,
2013-02-06 16:03:00,45.1,14.0,30.06,South,189,2.7,3.6,28,0.00,,---,0.00,VWS V14.01,2013-02-06 21:03:00,
2013-02-06 16:08:00,45.3,14.1,30.06,SSW,209,2.7,3.6,28,0.00,,---,0.00,VWS V14.01,2013-02-06 21:08:00,
2013-02-06 16:13:00,45.5,14.3,30.06,SW,217,8.3,8.3,28,0.00,,---,0.00,VWS V14.01,2013-02-06 21:13:00,
2013-02-06 16:19:00,45.0,13.8,30.06,SSW,213,6.3,6.3,28,0.00,,---,0.00,VWS V14.01,2013-02-06 21:19:00,
2013-02-06 16:24:00,45.0,13.8,30.06,SW,227,6.3,7.6,28,0.00,,---,0.00,VWS V14.01,2013-02-06 21:24:00,
2013-02-06 16:29:00,44.8,13.7,30.06,SSW,195,5.8,7.6,28,0.00,,---,0.00,VWS V14.01,2013-02-06 21:29:00,
2013-02-06 16:34:00,44.8,13.7,30.06,SW,229,4.9,4.9,28,0.00,,---,0.00,VWS V14.01,2013-02-06 21:34:00,
2013-02-06 16:39:00,45.3,14.1,30.06,SE,139,2.7,4.0,28,0.00,,---,0.00,VWS V14.01,2013-02-06 21:39:00,
2013-02-06 16:44:00,45.7,14.5,30.06,SE,139,0.0,0.0,28,0.00,,---,0.00,VWS V14.01,2013-02-06 21:44:00,
2013-02-06 16:49:00,46.2,14.9,30.06,SW,224,3.6,5.8,28,0.00,,---,0.00,VWS V14.01,2013-02-06 21:49:00,
2013-02-06 16:54:00,45.5,14.3,30.06,WSW,238,3.6,4.0,28,0.00,,---,0.00,VWS V14.01,2013-02-06 21:54:00,
2013-02-06 16:59:00,45.0,13.8,30.06,SSW,211,4.0,6.3,28,0.00,,---,0.00,VWS V14.01,2013-02-06 21:59:00,
2013-02-06 17:04:00,44.4,14.2,30.06,SSW,205,3.1,3.1,29,0.00,,---,0.00,VWS V14.01,2013-02-06 22:04:00,
2013-02-06 17:09:00,44.6,13.5,30.06,SW,214,5.4,5.4,28,0.00,,---,0.00,VWS V14.01,2013-02-06 22:09:00,
2013-02-06 17:14:00,44.1,13.1,30.06,South,188,3.1,3.1,28,0.00,,---,0.00,VWS V14.01,2013-02-06 22:14:00,
2013-02-06 17:19:00,43.5,13.4,30.06,WSW,239,3.6,3.6,29,0.00,,---,0.00,VWS V14.01,2013-02-06 22:19:00,
2013-02-06 17:24:00,43.2,13.1,30.06,WSW,243,0.0,3.1,29,0.00,,---,0.00,VWS V14.01,2013-02-06 22:24:00,
2013-02-06 17:29:00,42.8,12.8,30.09,WSW,257,0.0,0.0,29,0.00,,---,0.00,VWS V14.01,2013-02-06 22:29:00,
2013-02-06 17:34:00,42.6,12.6,30.09,West,260,2.7,2.7,29,0.00,,---,0.00,VWS V14.01,2013-02-06 22:34:00,
2013-02-06 17:39:00,42.1,12.1,30.09,West,260,0.0,0.0,29,0.00,,---,0.00,VWS V14.01,2013-02-06 22:39:00,
2013-02-06 17:44:00,41.2,11.4,30.09,West,260,0.0,0.0,29,0.00,,---,0.00,VWS V14.01,2013-02-06 22:44:00,
2013-02-06 17:49:00,39.7,11.6,30.09,West,260,0.0,0.0,31,0.00,,---,0.00,VWS V14.01,2013-02-06 22:49:00,
2013-02-06 17:54:00,38.3,11.7,30.09,WNW,300,0.0,0.0,33,0.00,,---,0.00,VWS V14.01,2013-02-06 22:54:00,
2013-02-06 17:59:00,37.0,13.8,30.09,NNE,16,3.1,3.1,38,0.00,,---,0.00,VWS V14.01,2013-02-06 22:59:00,
2013-02-06 18:04:00,36.3,13.8,30.09,NNE,28,3.6,3.6,39,0.00,,---,0.00,VWS V14.01,2013-02-06 23:04:00,
2013-02-06 18:09:00,35.8,13.8,30.09,NNE,29,3.1,3.1,40,0.00,,---,0.00,VWS V14.01,2013-02-06 23:09:00,
2013-02-06 18:14:00,35.4,14.1,30.09,NE,35,2.7,3.6,41,0.00,,---,0.00,VWS V14.01,2013-02-06 23:14:00,
2013-02-06 18:19:00,35.1,14.3,30.09,NE,39,2.7,4.0,42,0.00,,---,0.00,VWS V14.01,2013-02-06 23:19:00,
2013-02-06 18:24:00,34.7,14.0,30.09,NE,39,4.0,4.0,42,0.00,,---,0.00,VWS V14.01,2013-02-06 23:24:00,
2013-02-06 18:30:00,34.5,14.3,30.09,NE,39,3.1,3.1,43,0.00,,---,0.00,VWS V14.01,2013-02-06 23:30:00,
2013-02-06 18:35:00,34.3,14.2,30.09,NE,39,2.7,2.7,43,0.00,,---,0.00,VWS V14.01,2013-02-06 23:35:00,
2013-02-06 18:40:00,34.2,14.5,30.09,NE,39,3.6,3.6,44,0.00,,---,0.00,VWS V14.01,2013-02-06 23:40:00,
2013-02-06 18:45:00,34.0,14.4,30.09,NE,39,3.6,4.0,44,0.00,,---,0.00,VWS V14.01,2013-02-06 23:45:00,
2013-02-06 18:50:00,33.8,14.2,30.09,NE,39,4.0,4.0,44,0.00,,---,0.00,VWS V14.01,2013-02-06 23:50:00,
2013-02-06 18:55:00,33.6,14.6,30.09,NE,39,3.6,3.6,45,0.00,,---,0.00,VWS V14.01,2013-02-06 23:55:00,
2013-02-06 19:00:00,33.4,14.9,30.12,NE,39,2.7,3.6,46,0.00,,---,0.00,VWS V14.01,2013-02-07 00:00:00,
2013-02-06 19:05:00,33.3,14.7,30.12,NE,39,3.6,4.0,46,0.00,,---,0.00,VWS V14.01,2013-02-07 00:05:00,
2013-02-06 19:10:00,33.3,15.2,30.12,NE,39,4.0,4.0,47,0.00,,---,0.00,VWS V14.01,2013-02-07 00:10:00,
2013-02-06 19:15:00,33.3,15.2,30.12,NE,39,3.1,4.0,47,0.00,,---,0.00,VWS V14.01,2013-02-07 00:15:00,
2013-02-06 19:20:00,33.1,15.1,30.12,NE,39,4.0,4.0,47,0.00,,---,0.00,VWS V14.01,2013-02-07 00:20:00,
2013-02-06 19:25:00,33.1,15.1,30.12,NE,39,3.1,3.1,47,0.00,,---,0.00,VWS V14.01,2013-02-07 00:25:00,
2013-02-06 19:30:00,32.9,14.9,30.12,NE,39,3.1,3.1,47,0.00,,---,0.00,VWS V14.01,2013-02-07 00:30:00,
2013-02-06 19:35:00,32.7,15.2,30.12,NE,39,4.0,4.0,48,0.00,,---,0.00,VWS V14.01,2013-02-07 00:35:00,
2013-02-06 19:40:00,32.7,15.2,30.12,NE,39,3.1,3.1,48,0.00,,---,0.00,VWS V14.01,2013-02-07 00:40:00,
2013-02-06 19:45:00,32.5,15.0,30.12,NE,39,3.6,3.6,48,0.00,,---,0.00,VWS V14.01,2013-02-07 00:45:00,
2013-02-06 19:50:00,32.4,14.9,30.12,NE,39,2.7,3.1,48,0.00,,---,0.00,VWS V14.01,2013-02-07 00:50:00,
2013-02-06 19:55:00,32.2,15.2,30.12,NE,39,3.1,3.1,49,0.00,,---,0.00,VWS V14.01,2013-02-07 00:55:00,
2013-02-06 20:00:00,32.2,15.2,30.12,NE,39,4.0,4.0,49,0.00,,---,0.00,VWS V14.01,2013-02-07 01:00:00,
2013-02-06 20:05:00,32.2,15.6,30.12,NE,39,3.1,3.6,50,0.00,,---,0.00,VWS V14.01,2013-02-07 01:05:00,
2013-02-06 20:10:00,32.0,15.5,30.12,NE,39,2.2,2.2,50,0.00,,---,0.00,VWS V14.01,2013-02-07 01:10:00,
2013-02-06 20:15:00,31.8,15.3,30.12,NE,39,3.6,3.6,50,0.00,,---,0.00,VWS V14.01,2013-02-07 01:15:00,
2013-02-06 20:20:00,31.8,15.3,30.12,NE,39,3.1,3.6,50,0.00,,---,0.00,VWS V14.01,2013-02-07 01:20:00,
2013-02-06 20:25:00,31.6,15.1,30.12,NE,39,4.0,4.0,50,0.00,,---,0.00,VWS V14.01,2013-02-07 01:25:00,
2013-02-06 20:30:00,31.6,15.6,30.12,NE,39,3.6,3.6,51,0.00,,---,0.00,VWS V14.01,2013-02-07 01:30:00,
2013-02-06 20:36:00,31.5,15.4,30.12,NE,39,3.6,3.6,51,0.00,,---,0.00,VWS V14.01,2013-02-07 01:36:00,
2013-02-06 20:41:00,31.5,15.4,30.12,NE,39,2.2,2.7,51,0.00,,---,0.00,VWS V14.01,2013-02-07 01:41:00,
2013-02-06 20:46:00,31.3,15.3,30.12,NE,39,3.1,3.1,51,0.00,,---,0.00,VWS V14.01,2013-02-07 01:46:00,
2013-02-06 20:51:00,31.1,15.1,30.12,NE,39,3.6,3.6,51,0.00,,---,0.00,VWS V14.01,2013-02-07 01:51:00,
2013-02-06 20:56:00,31.1,15.5,30.12,NE,39,4.0,4.0,52,0.00,,---,0.00,VWS V14.01,2013-02-07 01:56:00,
2013-02-06 21:01:00,31.1,15.5,30.12,NE,39,3.1,4.0,52,0.00,,---,0.00,VWS V14.01,2013-02-07 02:01:00,
2013-02-06 21:06:00,31.1,15.5,30.12,NE,39,3.6,3.6,52,0.00,,---,0.00,VWS V14.01,2013-02-07 02:06:00,
2013-02-06 21:11:00,31.1,15.5,30.12,NE,39,3.1,3.1,52,0.00,,---,0.00,VWS V14.01,2013-02-07 02:11:00,
2013-02-06 21:16:00,31.1,15.5,30.12,NE,39,3.6,4.0,52,0.00,,---,0.00,VWS V14.01,2013-02-07 02:16:00,
2013-02-06 21:21:00,31.1,15.5,30.12,NE,39,2.7,3.6,52,0.00,,---,0.00,VWS V14.01,2013-02-07 02:21:00,
2013-02-06 21:26:00,30.9,15.4,30.12,NE,39,2.7,2.7,52,0.00,,---,0.00,VWS V14.01,2013-02-07 02:26:00,
2013-02-06 21:31:00,30.6,15.5,30.12,NE,39,2.7,2.7,53,0.00,,---,0.00,VWS V14.01,2013-02-07 02:31:00,
2013-02-06 21:36:00,30.2,15.6,30.12,NE,39,0.0,0.0,54,0.00,,---,0.00,VWS V14.01,2013-02-07 02:36:00,
2013-02-06 21:41:00,30.0,15.4,30.12,NE,39,0.0,0.0,54,0.00,,---,0.00,VWS V14.01,2013-02-07 02:41:00,
2013-02-06 21:46:00,29.7,15.1,30.12,NE,39,0.0,0.0,54,0.00,,---,0.00,VWS V14.01,2013-02-07 02:46:00,
2013-02-06 21:52:00,29.3,14.7,30.12,NE,39,0.0,0.0,54,0.00,,---,0.00,VWS V14.01,2013-02-07 02:52:00,
2013-02-06 21:57:00,29.1,15.0,30.12,NE,39,0.0,0.0,55,0.00,,---,0.00,VWS V14.01,2013-02-07 02:57:00,
2013-02-06 22:02:00,28.8,14.6,30.12,NE,39,0.0,0.0,55,0.00,,---,0.00,VWS V14.01,2013-02-07 03:02:00,
2013-02-06 22:07:00,28.6,14.5,30.12,NE,39,0.0,0.0,55,0.00,,---,0.00,VWS V14.01,2013-02-07 03:07:00,
2013-02-06 22:12:00,28.2,14.6,30.12,NE,39,0.0,0.0,56,0.00,,---,0.00,VWS V14.01,2013-02-07 03:12:00,
2013-02-06 22:17:00,28.2,14.6,30.12,NE,39,0.0,0.0,56,0.00,,---,0.00,VWS V14.01,2013-02-07 03:17:00,
2013-02-06 22:22:00,28.4,14.7,30.12,NE,39,0.0,0.0,56,0.00,,---,0.00,VWS V14.01,2013-02-07 03:22:00,
2013-02-06 22:27:00,28.2,14.6,30.12,NE,39,0.0,0.0,56,0.00,,---,0.00,VWS V14.01,2013-02-07 03:27:00,
2013-02-06 22:32:00,28.2,14.6,30.12,NE,39,0.0,0.0,56,0.00,,---,0.00,VWS V14.01,2013-02-07 03:32:00,
2013-02-06 22:37:00,28.2,14.6,30.12,NE,39,0.0,0.0,56,0.00,,---,0.00,VWS V14.01,2013-02-07 03:37:00,
2013-02-06 22:42:00,28.2,14.6,30.12,NE,39,0.0,0.0,56,0.00,,---,0.00,VWS V14.01,2013-02-07 03:42:00,
2013-02-06 22:47:00,28.2,15.0,30.12,NE,39,0.0,0.0,57,0.00,,---,0.00,VWS V14.01,2013-02-07 03:47:00,
2013-02-06 22:52:00,28.2,15.0,30.12,NE,39,0.0,0.0,57,0.00,,---,0.00,VWS V14.01,2013-02-07 03:52:00,
2013-02-06 22:57:00,28.4,15.1,30.12,NE,39,0.0,0.0,57,0.00,,---,0.00,VWS V14.01,2013-02-07 03:57:00,
2013-02-06 23:02:00,28.6,15.3,30.12,NE,39,0.0,0.0,57,0.00,,---,0.00,VWS V14.01,2013-02-07 04:02:00,
2013-02-06 23:07:00,28.6,15.3,30.12,NE,39,0.0,0.0,57,0.00,,---,0.00,VWS V14.01,2013-02-07 04:07:00,
2013-02-06 23:12:00,28.4,15.1,30.12,NE,39,0.0,0.0,57,0.00,,---,0.00,VWS V14.01,2013-02-07 04:12:00,
2013-02-06 23:17:00,28.0,15.2,30.12,NE,39,0.0,0.0,58,0.00,,---,0.00,VWS V14.01,2013-02-07 04:17:00,
2013-02-06 23:22:00,27.9,15.0,30.12,NE,39,0.0,0.0,58,0.00,,---,0.00,VWS V14.01,2013-02-07 04:22:00,
2013-02-06 23:27:00,27.9,15.0,30.12,NE,39,0.0,0.0,58,0.00,,---,0.00,VWS V14.01,2013-02-07 04:27:00,
2013-02-06 23:33:00,27.7,14.9,30.12,NE,39,0.0,0.0,58,0.00,,---,0.00,VWS V14.01,2013-02-07 04:33:00,
2013-02-06 23:38:00,27.3,14.5,30.12,NE,39,0.0,0.0,58,0.00,,---,0.00,VWS V14.01,2013-02-07 04:38:00,
2013-02-06 23:43:00,27.1,14.3,30.12,NE,39,0.0,0.0,58,0.00,,---,0.00,VWS V14.01,2013-02-07 04:43:00,
2013-02-06 23:48:00,27.1,14.3,30.12,NE,39,0.0,0.0,58,0.00,,---,0.00,VWS V14.01,2013-02-07 04:48:00,
2013-02-06 23:53:00,27.0,14.2,30.12,NE,39,0.0,0.0,58,0.00,,---,0.00,VWS V14.01,2013-02-07 04:53:00,
2013-02-06 23:58:00,27.0,14.2,30.15,NE,39,0.0,0.0,58,0.00,,---,0.00,VWS V14.01,2013-02-07 04:58:00,